This demonstration page uses our WeatherBlox Daily Observations layout. Learn more.

Left ArrowRight Arrow

Hourly Observations for February 7, 2016

Temp ( °F °C ) Dew Point ( °F °C ) Humidity (%) Winds ( mph kmh ) Pressure ( in mb ) Visibility ( mi km ) Precip ( " mm )
12:53 am 00:53 Clear 52 11.1 41 5 66 66 N 5 7 30.35 1028 10 16 0.00 0.00
1:53 am 01:53 Clear 50 10 41 5 71 71 NNW 5 7 30.34 1027 10 16 0.00 0.00
2:53 am 02:53 Clear 47 8.3 40 4.4 77 77 NNE 3 6 30.34 1028 10 16 0.00 0.00
3:53 am 03:53 Clear 53 11.7 41 5 64 64 N 6 9 30.34 1027 10 16 0.00 0.00
4:53 am 04:53 Clear 54 12.2 41 5 62 62 NNW 6 9 30.33 1027 10 16 0.00 0.00
5:53 am 05:53 Clear 55 12.8 41 5 59 59 NNW 7 11 30.33 1027 10 16 0.00 0.00
6:53 am 06:53 Clear 55 13 41 5 59 59 undefined N/A N/A 2 3 0.00 0.00
7:53 am 07:53 Sunny 56 13.3 42 5.6 60 60 W 5 7 30.35 1028 10 16 0.00 0.00
8:53 am 08:53 Sunny 64 17.8 42 5.6 45 45 N 8 13 30.35 1028 10 16 0.00 0.00
9:53 am 09:53 Sunny 69 20.6 41 5 36 36 N 12 19 30.34 1028 10 16 0.00 0.00
10:53 am 10:53 Sunny 72 22.2 41 5 33 33 N 17 28 30.32 1027 10 16 0.00 0.00
11:53 am 11:53 Sunny 75 23.9 41 5 29 29 N 20 31 30.30 1026 10 16 0.00 0.00
12:53 pm 12:53 Sunny 79 26.1 41 5 26 26 N 13 20 30.27 1025 10 16 0.00 0.00
1:53 pm 13:53 Sunny 79 26.1 39 3.9 24 24 N 21 33 30.24 1024 10 16 0.00 0.00
2:53 pm 14:53 Sunny 80 26.7 41 5 25 25 NNE 17 28 30.24 1024 10 16 0.00 0.00
3:53 pm 15:53 Sunny 80 26.7 40 4.4 24 24 N 18 30 30.24 1024 10 16 0.00 0.00
4:53 pm 16:53 Sunny 77 25 40 4.4 26 26 N 15 24 30.24 1024 10 16 0.00 0.00
5:53 pm 17:53 Clear 76 24.4 39 3.9 26 26 N 16 26 30.26 1025 10 16 0.00 0.00
6:53 pm 18:53 Clear 74 23.3 40 4.4 29 29 N 15 24 30.27 1025 10 16 0.00 0.00
7:53 pm 19:53 Clear 72 22.2 40 4.4 31 31 N 15 24 30.29 1026 10 16 0.00 0.00
8:53 pm 20:53 Clear 70 21.1 38 3.3 31 31 NNE 12 19 30.30 1026 10 16 0.00 0.00
9:53 pm 21:53 Clear 70 21.1 37 2.8 30 30 N 16 26 30.29 1026 10 16 0.00 0.00
10:53 pm 22:53 Clear 68 20 37 2.8 32 32 N 10 17 30.30 1026 10 16 0.00 0.00
11:53 pm 23:53 Clear 68 20 36 2.2 31 31 N 13 20 30.31 1026 10 16 0.00 0.00

Powered by AerisWeather